Change the Weather History Date:

Tuesday, October 9, 2012

  Actual Average Record
Temperature  
Mean Temperature 54 °F -  
Max Temperature 59 °F 71 °F 90 °F (2007)
Min Temperature 50 °F 50 °F 33 °F (2001)
Degree Days  
Heating Degree Days 10    
Growing Degree Days 4 (Base 50)    
Moisture  
Dew Point 52 °F    
Average Humidity 94    
Maximum Humidity 100    
Minimum Humidity 81    
Precipitation  
Precipitation 0.03 in - - ()
Sea Level Pressure  
Sea Level Pressure 30.13 in    
Wind  
Wind Speed 11 mph (North)    
Max Wind Speed 16 mph    
Max Gust Speed -    
Visibility 8 miles    
Events Rain    
Averages and records for this station are not official NWS values.
T = Trace of Precipitation, MM = Missing Value Source: NWS Daily Summary

Daily Weather History Graph

Daily Weather History Graph

Search for Another Location

Airport or City:

Trip Planner

Search our weather history database for the weather conditions in past years. The results will help you decide how hot, cold, wet, or windy it might be!

Date:

Astronomy

Oct. 09, 2012 Rise Set
Actual Time 7:05 AM EDT 6:31 PM EDT
Civil Twilight 6:39 AM EDT 6:58 PM EDT
Nautical Twilight 6:08 AM EDT 7:29 PM EDT
Astronomical Twilight 5:37 AM EDT 7:59 PM EDT
Moon 12:42 AM EDT (10/9) 2:54 PM EDT (10/9)
Length of Visible Light 12h 18m
Length of Day
11h 25m
Last Quarter, 37% of the Moon is Illuminated
Oct 9
Last Quarter
Oct 15
New
Oct 21
First Quarter
Oct 29
Full
Nov 6
Last Quarter

Hourly Weather History & Observations

Time (EDT) Temp. Dew Point Humidity Pressure Visibility Wind Dir Wind Speed Gust Speed Precip Events Conditions
12:55 AM 53.2 °F 47.7 °F 81% 30.16 in 10.0 mi North 10.4 mph - N/A   Overcast
1:55 AM 53.1 °F 47.5 °F 81% 30.16 in 10.0 mi North 8.1 mph - N/A   Overcast
2:05 AM 53.6 °F 48.2 °F 82% 30.15 in 10.0 mi North 11.5 mph - N/A   Overcast
2:55 AM 52.3 °F 47.3 °F 83% 30.15 in 10.0 mi North 10.4 mph - N/A   Overcast
3:55 AM 52.0 °F 47.1 °F 83% 30.16 in 10.0 mi North 13.8 mph - N/A   Overcast
4:42 AM 50.0 °F 48.2 °F 94% 30.15 in 9.0 mi North 11.5 mph - N/A   Overcast
4:45 AM 50.0 °F 48.2 °F 94% 30.15 in 9.0 mi North 12.7 mph - N/A   Overcast
4:46 AM 50.0 °F 48.2 °F 94% 30.15 in 9.0 mi North 12.7 mph - N/A   Overcast
4:55 AM 50.7 °F 48.6 °F 92% 30.14 in 9.0 mi North 16.1 mph - N/A   Overcast
4:59 AM 50.0 °F 48.2 °F 94% 30.14 in 7.0 mi North 12.7 mph - N/A   Overcast
5:38 AM 50.0 °F 50.0 °F 100% 30.14 in 7.0 mi North 11.5 mph - N/A   Overcast
5:49 AM 50.0 °F 50.0 °F 100% 30.15 in 7.0 mi North 11.5 mph - N/A   Overcast
5:55 AM 50.7 °F 49.6 °F 96% 30.15 in 7.0 mi North 10.4 mph - N/A   Overcast
5:58 AM 50.0 °F 50.0 °F 100% 30.15 in 6.0 mi North 11.5 mph - N/A   Overcast
6:02 AM 50.0 °F 50.0 °F 100% 30.15 in 6.0 mi North 10.4 mph - N/A   Light Drizzle
6:19 AM 51.8 °F 50.0 °F 94% 30.15 in 4.0 mi North 12.7 mph - N/A Rain Light Rain
6:21 AM 51.8 °F 50.0 °F 94% 30.15 in 4.0 mi North 11.5 mph - N/A Rain Light Rain
6:22 AM 51.8 °F 50.0 °F 94% 30.15 in 4.0 mi North 12.7 mph - N/A   Overcast
6:24 AM 51.8 °F 50.0 °F 94% 30.15 in 4.0 mi North 10.4 mph - N/A Rain Light Rain
6:27 AM 51.8 °F 50.0 °F 94% 30.15 in 5.0 mi North 12.7 mph - N/A Rain Light Rain
6:49 AM 50.0 °F 50.0 °F 100% 30.15 in 6.0 mi North 12.7 mph - N/A   Light Drizzle
6:55 AM 50.9 °F 50.2 °F 97% 30.15 in 5.0 mi North 11.5 mph - 0.01 in Rain Light Rain
7:06 AM 51.8 °F 50.0 °F 94% 30.15 in 6.0 mi North 12.7 mph - N/A   Light Drizzle
7:07 AM 51.8 °F 50.0 °F 94% 30.15 in 6.0 mi North 12.7 mph - N/A   Overcast
7:11 AM 51.8 °F 50.0 °F 94% 30.15 in 5.0 mi North 12.7 mph - N/A   Overcast
7:18 AM 51.8 °F 50.0 °F 94% 30.14 in 5.0 mi North 13.8 mph - N/A Rain Light Rain
7:55 AM 51.3 °F 50.7 °F 98% 30.15 in 5.0 mi North 10.4 mph - 0.00 in   Light Drizzle
7:56 AM 51.8 °F 50.0 °F 94% 30.15 in 5.0 mi North 10.4 mph - N/A   Overcast
8:03 AM 51.8 °F 50.0 °F 94% 30.15 in 5.0 mi North 12.7 mph - N/A   Light Drizzle
8:10 AM 51.8 °F 50.0 °F 94% 30.16 in 4.0 mi North 12.7 mph - N/A Rain Light Rain
8:49 AM 51.8 °F 51.8 °F 100% 30.16 in 4.0 mi North 11.5 mph - N/A Rain Light Rain
8:55 AM 51.6 °F 51.4 °F 99% 30.16 in 4.0 mi North 11.5 mph - 0.01 in Rain Light Rain
9:01 AM 51.8 °F 51.8 °F 100% 30.16 in 2.5 mi North 11.5 mph - N/A Rain Light Rain
9:03 AM 51.8 °F 51.8 °F 100% 30.16 in 3.0 mi North 10.4 mph - N/A Rain Light Rain
9:18 AM 51.8 °F 51.8 °F 100% 30.16 in 5.0 mi North 11.5 mph - N/A Rain Light Rain
9:29 AM 51.8 °F 51.8 °F 100% 30.16 in 5.0 mi North 11.5 mph - N/A Rain Light Rain
9:39 AM 51.8 °F 51.8 °F 100% 30.16 in 5.0 mi North 11.5 mph - N/A   Overcast
9:55 AM 53.4 °F 53.1 °F 99% 30.16 in 7.0 mi North 9.2 mph - 0.00 in   Overcast
9:58 AM 53.6 °F 53.6 °F 100% 30.17 in 7.0 mi North 10.4 mph - N/A   Overcast
10:04 AM 53.6 °F 53.6 °F 100% 30.17 in 9.0 mi North 11.5 mph - N/A   Overcast
10:21 AM 53.6 °F 53.6 °F 100% 30.16 in 8.0 mi North 12.7 mph - N/A   Overcast
10:40 AM 53.6 °F 53.6 °F 100% 30.16 in 5.0 mi North 11.5 mph - N/A   Light Drizzle
10:51 AM 53.6 °F 53.6 °F 100% 30.16 in 7.0 mi North 11.5 mph - N/A   Overcast
10:55 AM 54.5 °F 54.1 °F 99% 30.15 in 9.0 mi North 10.4 mph - 0.00 in   Overcast
11:55 AM 56.7 °F 55.2 °F 95% 30.14 in 10.0 mi North 12.7 mph - N/A   Overcast
12:05 PM 57.2 °F 55.4 °F 94% 30.14 in 10.0 mi North 12.7 mph - N/A   Overcast
12:27 PM 57.2 °F 55.4 °F 94% 30.13 in 10.0 mi North 11.5 mph - N/A   Overcast
12:55 PM 57.9 °F 55.2 °F 91% 30.12 in 10.0 mi North 13.8 mph - N/A   Overcast
1:55 PM 58.1 °F 54.9 °F 89% 30.10 in 10.0 mi North 10.4 mph - N/A   Overcast
2:55 PM 58.8 °F 55.0 °F 87% 30.09 in 10.0 mi North 10.4 mph - N/A   Overcast
3:55 PM 59.0 °F 55.6 °F 88% 30.09 in 10.0 mi North 10.4 mph - 0.01 in   Overcast
4:55 PM 59.2 °F 55.8 °F 88% 30.08 in 10.0 mi North 8.1 mph - N/A   Overcast
5:23 PM 59.0 °F 55.4 °F 88% 30.08 in 10.0 mi North 10.4 mph - N/A   Overcast
5:55 PM 59.4 °F 56.3 °F 90% 30.07 in 10.0 mi North 9.2 mph - N/A   Overcast
6:32 PM 59.0 °F 57.2 °F 94% 30.07 in 10.0 mi North 8.1 mph - N/A   Overcast
6:55 PM 58.8 °F 56.3 °F 91% 30.08 in 10.0 mi North 8.1 mph - N/A   Overcast
7:55 PM 58.6 °F 56.7 °F 93% 30.07 in 10.0 mi North 8.1 mph - N/A   Overcast
8:13 PM 59.0 °F 57.2 °F 94% 30.07 in 10.0 mi North 10.4 mph - N/A   Overcast
8:55 PM 58.3 °F 56.8 °F 95% 30.07 in 10.0 mi North 8.1 mph - N/A   Overcast
9:13 PM 59.0 °F 57.2 °F 94% 30.07 in 10.0 mi Variable 6.9 mph - N/A   Overcast
9:14 PM 59.0 °F 57.2 °F 94% 30.07 in 10.0 mi North 8.1 mph - N/A   Overcast
9:27 PM 59.0 °F 57.2 °F 94% 30.07 in 10.0 mi North 8.1 mph - N/A   Overcast
9:55 PM 58.1 °F 57.0 °F 96% 30.06 in 10.0 mi North 6.9 mph - N/A   Overcast
10:04 PM 59.0 °F 57.2 °F 94% 30.06 in 10.0 mi Variable 6.9 mph - N/A   Overcast
10:55 PM 58.1 °F 57.0 °F 96% 30.05 in 10.0 mi Variable 6.9 mph - N/A   Overcast
11:40 PM 59.0 °F 57.2 °F 94% 30.05 in 10.0 mi NW 6.9 mph - N/A   Overcast
11:55 PM 58.3 °F 57.4 °F 97% 30.04 in 10.0 mi NNW 8.1 mph - N/A   Overcast